Location: Laval
(45.2333°N, 2.1500°E)
Time: 09:25:26
(UTC+00:00)

Daily predictions for brighter satellites

Satellite Brightness Start Highest point End
(mag) Time Altitude Azimuth Time Altitude Azimuth Time Altitude Azimuth
STARLINK-1072 3.7 20:00:01 10° WNW 20:04:10 83° NNE 20:08:19 10° ESE
Cosmos 1140 Rocket 4.3 20:00:53 10° NNW 20:05:57 53° WSW 20:11:01 10° S
Cosmos 1782 Rocket 4.1 20:01:37 10° NNW 20:06:04 63° W 20:10:29 10° S
Cosmos 1461 3.6 20:02:32 10° S 20:06:12 32° ESE 20:10:04 10° NE
STARLINK-1225 3.7 20:02:25 10° WSW 20:06:34 86° NNW 20:10:44 10° ENE
MOS 1 Rocket 3.4 20:02:50 10° N 20:07:12 73° WNW 20:11:27 10° SSW
Cosmos 1544 3.5 20:04:08 10° NNW 20:07:44 64° W 20:11:17 10° S
SJ-6B 4.0 20:04:28 10° S 20:07:59 40° W 20:11:32 10° NNW
Iridium 51 4.1 20:04:12 10° S 20:08:02 81° E 20:11:39 10° N
Okean 3 3.6 20:04:35 10° S 20:08:49 61° E 20:13:05 10° NNE
STARLINK-1096 3.6 20:04:59 10° WNW 20:09:09 88° NNE 20:13:17 10° ESE
ASTEX 1 4.3 20:05:53 10° SSW 20:10:39 52° W 20:15:29 10° NNW
STARLINK-1230 3.8 20:07:23 10° WSW 20:11:32 81° NNW 20:15:42 10° ENE
STARLINK-1079 3.6 20:09:57 10° WNW 20:14:07 86° SW 20:18:16 10° SE
STARLINK-1243 3.9 20:12:23 10° WSW 20:16:32 75° NNW 20:20:41 10° NE
Cosmos 2221 Rocket 3.6 20:12:12 10° S 20:16:40 69° E 20:21:13 10° NNE
SL-4 R/B 1.7 20:14:23 10° NW 20:17:24 54° WSW 20:20:09 10° SSE
STARLINK-1116 3.6 20:14:57 10° WNW 20:19:06 80° SW 20:23:13 10° SE
NOSS 8 (F) 4.3 20:16:30 10° SSW 20:19:46 53° SE 20:22:44 10° NE
Meteor 1-13 Rocket 4.4 20:14:49 10° S 20:20:18 57° E 20:25:55 10° NNE
STARLINK-1236 4.0 20:17:22 10° WSW 20:21:30 70° NNW 20:25:39 10° NE
ERS-1 Rocket 4.3 20:20:01 10° ESE 20:24:08 26° ENE 20:28:16 10° N
Cosmos 2142 Rocket 4.5 20:18:57 10° N 20:25:07 81° E 20:31:20 10° S
STARLINK-1094 3.7 20:24:55 10° WNW 20:29:03 68° SW 20:32:47 12° SE
Sich 1 Rocket 4.4 20:25:14 10° NNW 20:29:44 55° W 20:34:11 10° S
USA 245 3.4 20:27:56 12° SE 20:30:20 31° ENE 20:32:40 10° N
STARLINK-1269 4.2 20:27:23 10° WSW 20:31:29 62° NNW 20:35:36 10° NE
Cosmos 2278 Rocket 3.0 20:26:56 10° SW 20:32:31 57° WNW 20:38:08 10° NNE
TSX-5 4.5 20:27:04 10° SSW 20:32:46 57° ESE 20:37:10 10° NE
Resurs 01 Rocket 1.9 20:29:21 10° S 20:33:47 72° WSW 20:38:14 10° NNW
STARLINK-1117 3.8 20:29:55 10° WNW 20:34:00 63° SW 20:37:34 13° SE
GPS 2-04 Rocket1 4.1 20:31:49 10° SW 20:34:14 17° S 20:35:58 13° SSE
Okean 1 Rocket 4.0 20:30:23 10° N 20:34:27 33° ENE 20:37:54 13° SE
Cosmos 1741 Rocket 4.1 20:29:43 10° NNW 20:34:57 71° ENE 20:39:48 12° SSE
Okean 2 Rocket 3.2 20:30:50 10° NNW 20:35:16 77° W 20:39:39 10° S
STARLINK-1111 4.5 20:32:11 10° NW 20:36:13 46° NNE 20:40:13 10° E
STARLINK-1200 4.3 20:32:22 10° WSW 20:36:27 58° NNW 20:40:34 10° NE
MetOp-B 4.2 20:32:19 10° SSE 20:37:40 77° ENE 20:43:02 10° NNW
Meteor 1-12 Rocket 4.4 20:32:54 10° NNW 20:38:35 81° W 20:44:18 10° S
STARLINK-1078 3.9 20:34:54 10° WNW 20:38:59 58° SW 20:42:21 14° SE
SL-8 R/B 3.9 20:36:17 10° WNW 20:41:05 71° NNE 20:45:54 10° E
STARLINK-1073 4.4 20:37:10 10° NW 20:41:13 49° NNE 20:45:14 10° E
STARLINK-1192 4.5 20:37:24 10° WSW 20:41:28 54° NNW 20:45:33 10° NE
Cosmos 2279 Rocket 4.0 20:37:03 10° N 20:43:20 89° W 20:49:33 10° S
STARLINK-1108 4.0 20:39:54 10° WNW 20:43:57 53° SW 20:47:08 15° SE
Cosmos 371 Rocket 3.7 20:39:40 10° SSW 20:44:30 70° WNW 20:49:23 10° NNE
Cosmos 1850 Rocket 4.1 20:39:09 10° NNW 20:44:32 88° ENE 20:49:25 13° SSE
ATLAS 3B CENTAUR R/B 4.3 20:33:14 10° SW 20:45:19 28° S 20:50:57 14° SE
SL-4 R/B 3.7 20:42:38 10° S 20:45:56 19° SE 20:49:18 10° E
STARLINK-1121 4.3 20:42:09 10° NW 20:46:12 51° NNE 20:50:08 11° ESE
Cosmos 1110 Rocket 4.3 20:41:45 10° S 20:46:41 46° ESE 20:51:37 10° NNE
Terra 3.2 20:44:22 12° ESE 20:47:47 25° ENE 20:51:40 10° N
Spot 2 Rocket 3.5 20:44:03 12° SSE 20:48:48 78° ENE 20:53:52 10° NNW
STARLINK-1071 4.1 20:44:54 10° WNW 20:48:54 48° SW 20:51:55 16° SSE
Abrixas rocket 1.9 20:46:43 10° WNW 20:49:41 82° NNE 20:51:50 17° ESE
SPOT 1/Viking Rocket 3.8 20:45:17 14° SSE 20:49:42 58° ENE 20:54:46 10° N
Cosmos 2151 Rocket 3.8 20:45:28 10° NNW 20:50:01 78° W 20:54:32 10° S
CARTOSAT-1 4.4 20:47:49 15° SE 20:50:54 36° ENE 20:54:52 10° N
NOSS 8 (H) 4.0 20:47:42 10° SSW 20:50:56 68° SE 20:53:57 10° NE
STARLINK-1106 4.2 20:47:08 10° NW 20:51:13 54° NNE 20:54:56 12° ESE
STARLINK-1110 4.2 20:48:42 10° WNW 20:52:40 45° SW 20:55:32 17° SSE
STARLINK-1112 4.1 20:52:05 10° NW 20:56:11 58° NNE 20:59:42 14° ESE
STARLINK-1124 4.4 20:54:55 10° WNW 20:58:49 41° SW 21:01:29 18° SSE
Aureole 2 4.2 20:55:55 10° NNW 20:59:01 61° ENE 21:00:36 24° SE
STARLINK-1128 4.0 20:57:03 10° NW 21:01:10 62° NNE 21:04:28 15° ESE
Cosmos 1331 Rocket 4.0 20:58:24 10° S 21:03:26 58° ESE 21:08:31 10° NNE
Aureole 2 Rocket 2.2 21:01:10 10° SSW 21:04:18 77° WNW 21:07:18 10° NNE
deb Kosmos-1763 3.9 21:01:08 10° NNW 21:04:45 85° ENE 21:06:57 22° SSE
STARLINK-1113 3.9 21:02:03 10° NW 21:06:10 66° NNE 21:09:16 17° ESE
Cosmos 1733 4.4 21:04:30 10° NNE 21:07:50 28° ENE 21:09:32 20° ESE
Cosmos 1437 Rocket 3.3 21:05:31 10° SSW 21:09:14 57° WNW 21:13:02 10° N
STARLINK-1119 3.8 21:07:02 10° NW 21:11:10 70° NNE 21:14:03 19° ESE
Cosmos 1378 3.4 21:09:41 22° SSE 21:11:48 49° E 21:15:24 10° NNE
ISS -1.9 21:13:16 10° W 21:15:48 20° SW 21:17:02 16° SSW
Cosmos 1242 Rocket 4.4 21:15:26 16° E 21:15:53 16° E 21:18:10 10° NE
Cosmos 304 Rocket 4.0 21:11:07 10° SSW 21:15:53 73° WNW 21:20:42 10° NNE
STARLINK-1114 3.7 21:12:00 10° NW 21:16:09 75° NNE 21:18:49 21° ESE
Meteor 1-15 Rocket 4.4 21:11:10 10° NNW 21:17:08 80° W 21:21:57 16° S
Lacrosse 5 3.3 21:14:41 10° WNW 21:18:54 27° SW 21:22:07 15° S
Cosmos 1092 Rocket 4.2 21:15:30 18° SSE 21:19:59 54° E 21:25:57 10° NNE
NOSS 2-2 (D) 3.0 21:17:09 10° SW 21:20:42 84° SE 21:24:38 10° NE
STARLINK-1130 (DARKSAT) 3.6 21:16:58 10° WNW 21:21:08 81° NNE 21:23:36 23° ESE
CENTAUR R/B 3.8 21:15:55 10° NNW 21:23:33 49° NE 21:31:08 13° ESE
Cosmos 1674 Rocket 4.3 21:20:08 10° SSW 21:24:24 52° WNW 21:28:44 10° N
STARLINK-1084 3.6 21:21:57 10° WNW 21:26:07 86° NE 21:28:23 26° ESE
ATLAS 3B R/B 4.3 21:20:42 10° NNW 21:26:23 28° NNE 21:32:12 10° E
Cosmos 1378 Rocket 3.9 21:22:53 10° SSW 21:27:15 64° W 21:31:37 10° N
SL-27 R/B 3.7 21:24:55 10° N 21:28:10 31° ENE 21:29:28 24° ESE
Cosmos 1766 3.3 21:26:58 10° N 21:30:57 70° E 21:32:47 30° SSE
STARLINK-1098 3.5 21:26:56 10° WNW 21:31:06 88° SSW 21:33:10 29° SE
STARLINK-1123 3.5 21:31:54 10° WNW 21:36:03 82° SW 21:37:56 31° SE
Cosmos 1943 Rocket 2.1 21:31:46 13° SSW 21:36:41 67° ESE 21:42:15 10° NNE
Cosmos 2297 4.3 21:31:17 10° SW 21:36:53 60° WNW 21:42:34 10° NNE
NOSS 2-2 (E) 4.0 21:34:33 10° SW 21:38:03 52° NW 21:42:04 10° NNE
NOSS 3-4 (A) 4.3 21:36:31 24° SE 21:38:12 28° ESE 21:43:21 10° NE
NOSS 3-4 (C) 4.3 21:36:40 24° SE 21:38:18 28° ESE 21:43:25 10° ENE
Cosmos 1900 4.3 21:33:16 10° NNW 21:38:20 89° NE 21:41:01 29° SSE
STARLINK-1097 3.5 21:36:55 10° WNW 21:41:04 76° SW 21:42:45 34° SE
Cosmos 2082 Rocket 3.9 21:38:45 10° NW 21:43:19 25° WSW 21:47:51 10° SSW
SeaSat 1 3.8 21:40:31 10° ENE 21:44:16 21° ESE 21:44:35 21° ESE
STARLINK-1099 3.6 21:41:53 10° WNW 21:46:02 70° SW 21:47:31 37° SE
Cosmos 1975 Rocket 3.0 21:44:36 30° S 21:46:45 72° E 21:51:09 10° NNE
Cosmos 292 Rocket 4.1 21:48:20 32° SSE 21:50:09 47° ESE 21:54:49 10° NNE
BREEZE-M DEB (TANK) 4.0 21:32:12 10° WSW 21:50:12 86° NNW 21:54:27 10° ENE
STARLINK-1104 3.6 21:46:52 10° WNW 21:50:59 65° SW 21:52:18 40° SSE
BREEZE-M DEB (TANK) 3.9 21:47:20 10° WNW 21:51:29 47° N 21:54:59 10° ENE
Cosmos 2369 Rocket 2.2 21:49:04 21° S 21:52:52 65° ESE 21:58:28 10° NNE
STARLINK-1144 3.7 21:51:52 10° WNW 21:55:57 60° SW 21:57:05 42° SSE
SPOT 5 3.5 21:53:31 24° S 21:56:39 58° W 22:01:57 10° NNW
ATLAS CENTAUR R/B 2.9 21:59:35 22° E 21:59:35 22° E 22:02:06 10° ENE
STARLINK-1103 3.8 21:56:51 10° WNW 22:00:55 55° SW 22:01:51 43° S
ERS-1 Rocket 3.8 21:59:40 21° SSW 22:02:42 43° W 22:07:30 10° NNW
Cosmos 1025 Rocket 3.7 22:02:58 33° ESE 22:03:42 35° E 22:07:38 10° NNE
Okean 2 3.7 22:02:00 27° SSW 22:04:07 65° W 22:08:16 10° N
EXPRESS MD2 4.4 22:00:43 10° W 22:04:21 61° N 22:11:43 10° ENE
Cosmos 2026 Rocket 4.0 22:00:23 24° S 22:04:24 86° E 22:10:47 10° N
Thor Agena Rocket 4.1 22:00:34 10° NNE 22:05:36 42° E 22:07:11 33° SE
STARLINK-1101 3.9 22:01:51 10° WNW 22:05:52 50° SW 22:06:38 43° S
Meteor 1-22 Rocket 4.5 22:00:08 10° NNW 22:05:58 67° W 22:09:05 27° S
ATLAS 2AS CENTAUR R/B 3.2 22:00:30 20° S 22:06:04 54° ESE 22:13:45 10° NE
Cosmos 1656 Rocket 4.1 22:04:50 33° SSE 22:06:35 42° ESE 22:11:49 10° NE
BREEZE M DEB (TANK) 3.2 22:03:01 10° W 22:06:50 46° NNW 22:08:32 14° NE
Cosmos 1553 Rocket 4.1 22:02:35 10° N 22:08:49 61° ENE 22:11:43 32° SSE
BREEZE-M DEB (TANK) 4.3 21:53:59 10° WNW 22:09:03 82° NNE 22:11:56 23° ESE
STARLINK-1228 4.2 22:06:12 10° NW 22:09:33 42° NNE 22:11:07 25° E
Cosmos 1953 3.6 22:06:31 10° NNE 22:09:55 26° ENE 22:10:41 25° E
NOSS 3-2 (A) 4.1 22:02:49 10° NW 22:10:23 74° WSW 22:15:11 29° SSE
STARLINK-1102 4.0 22:06:52 10° WNW 22:10:50 46° SW 22:11:26 42° SSW
APEX 4.3 22:06:47 23° SSW 22:11:00 69° ESE 22:16:26 10° NNE
Cosmos 1470 2.9 22:07:17 10° N 22:11:08 60° E 22:11:51 49° SE
STARLINK-1235 4.2 22:08:56 10° NW 22:12:01 39° NNE 22:13:11 27° ENE
Cosmos 968 Rocket 3.5 22:10:26 10° NNW 22:15:36 72° ENE 22:17:31 38° SE
STARLINK-1111 4.1 22:11:51 10° WNW 22:15:47 42° SW 22:16:12 41° SSW
Cosmos 1655 Rocket 4.4 22:15:01 32° SE 22:17:31 49° E 22:23:31 10° NNE
Cosmos 1455 Rocket 3.1 22:13:43 10° NNW 22:18:03 69° W 22:19:25 41° SSW
STARLINK-1073 4.2 22:16:52 10° WNW 22:20:45 39° SW 22:20:59 38° SSW
ATLAS 5 CENTAUR R/B 2.2 22:14:53 10° SSW 22:21:46 42° E 22:23:44 10° ENE
USA 238 DEB 4.0 22:15:04 10° NW 22:22:12 63° WSW 22:25:51 31° S
USA 238 4.0 22:15:10 10° NW 22:22:18 63° WSW 22:25:58 31° S
SL-8 R/B 4.1 22:18:57 10° WNW 22:23:32 45° SSW 22:24:13 42° S
Cosmos 1758 3.3 22:20:35 10° N 22:24:40 76° E 22:25:25 56° SSE
SL-4 R/B 2.2 22:20:20 10° SW 22:25:06 80° SSE 22:29:59 10° ENE
Terra 2.7 22:23:15 26° SSW 22:25:19 40° W 22:29:49 10° NNW
Cosmos 1842 4.1 22:24:08 29° SW 22:25:41 46° WNW 22:29:28 10° N
STARLINK-1121 4.4 22:21:53 10° WNW 22:25:42 35° SW 22:25:46 35° SW
STARLINK-1234 3.6 22:26:39 10° NW 22:29:52 53° NNE 22:30:16 48° ENE
Cosmos 1503 Rocket 4.0 22:30:25 10° NNW 22:35:46 77° ENE 22:37:35 42° SE
Cosmos 2266 Rocket 4.3 22:33:43 35° SE 22:35:48 49° E 22:41:35 10° NNE
STARLINK-1209 3.3 22:32:48 10° NW 22:36:04 62° NNE 22:36:13 61° NE
Meteor 2-8 Rocket 4.4 22:35:30 10° N 22:41:41 81° E 22:44:07 39° SSE
Cosmos 2263 4.3 22:39:18 24° SW 22:42:46 74° WNW 22:48:24 10° NNE
Cosmos 1536 Rocket 3.4 22:45:44 58° S 22:46:34 90° WSW 22:50:58 10° N
Cosmos 1674 4.0 22:48:20 28° E 22:48:20 28° E 22:51:20 10° NNE
Cosmos 1271 Rocket 3.2 22:49:29 45° WSW 22:50:16 54° WNW 22:54:09 10° N
Cosmos 1242 Rocket 3.9 22:49:25 29° WSW 22:50:26 34° WNW 22:53:51 10° N
STARLINK-60 4.0 22:52:21 24° W 22:53:55 45° NNW 22:57:00 10° NE
Spot 4 3.8 22:53:29 51° S 22:54:42 81° WSW 22:59:35 10° NNW
Cosmos 1544 Rocket 4.5 22:50:43 10° NNW 22:54:45 38° W 22:55:47 33° SW
COSMOS 2455 2.8 22:52:50 41° S 22:54:55 67° ESE 23:00:55 10° NE
Cosmos 1354 Rocket 4.0 22:49:46 10° NNW 22:55:05 83° WSW 22:56:35 49° S
USA 215 3.7 22:52:57 12° ESE 22:59:04 62° NNE 23:05:31 10° NW
Cosmos 1833 4.3 22:53:57 10° NNW 22:59:33 66° WSW 23:01:10 45° S
Cosmos 1707 3.2 22:59:44 47° WSW 23:00:20 52° WNW 23:04:09 10° N
Cosmos 2297 Rocket 4.3 22:57:46 10° N 23:01:57 21° NE 23:06:06 10° E
Helios 1A 4.1 23:01:35 30° E 23:02:27 33° ENE 23:06:15 10° N
Cosmos 1174 3.7 23:06:36 63° NNE 23:06:36 63° NNE 23:09:47 10° NNE
Cosmos 1726 2.1 23:03:39 10° NNW 23:07:20 75° W 23:07:20 75° W
ALOS 2 2.6 23:07:47 59° SE 23:08:29 71° ENE 23:12:51 10° N
Timation 2 Rocket 4.5 23:03:37 10° NNW 23:09:47 52° NE 23:12:54 27° ESE
COSMOS 2487 2.6 23:07:28 10° NNW 23:10:32 67° NW 23:10:32 67° NW
Cosmos 2058 Rocket 4.5 23:07:07 10° NNE 23:10:57 27° ENE 23:11:58 25° E
CENTAUR R/B 3.4 23:06:40 10° NW 23:14:37 56° WSW 23:18:17 35° S
Meteor 2-5 Rocket 4.2 23:14:12 38° SE 23:15:29 45° E 23:20:49 10° NNE
Meteor 1-16 Rocket 4.1 23:10:53 10° NNW 23:16:23 80° W 23:17:49 50° S
Cosmos 1867 3.7 23:12:18 10° NW 23:17:40 60° WSW 23:18:45 50° SSW
ATLAS 3B R/B 2.6 23:11:07 10° NW 23:17:57 88° NE 23:21:09 36° SE
EO 1 Del DPAF 4.5 23:15:12 10° N 23:18:39 34° WNW 23:19:29 30° W
FALCON 9 DEB 4.2 23:20:07 37° ENE 23:20:07 37° ENE 23:22:20 10° ENE
STARLINK-1232 4.4 23:16:06 10° NW 23:20:09 49° NNE 23:22:15 25° E
Cosmos 1943 Rocket 4.3 23:16:35 10° W 23:20:57 23° NW 23:25:22 10° N
Cosmos 1606 Rocket 3.6 23:16:50 10° N 23:21:08 65° E 23:21:36 60° ESE
SeaSat 1 2.9 23:17:13 10° NNE 23:22:05 58° WNW 23:24:20 30° WSW
Cosmos 2098 Rocket 4.3 23:20:08 40° S 23:23:03 78° E 23:30:33 10° N
STARLINK-29 3.9 23:24:02 48° N 23:24:02 48° N 23:26:56 10° NE
STARLINK-1208 4.3 23:21:03 10° NW 23:25:07 52° NNE 23:27:00 28° E
ATLAS CENTAUR R/B 3.8 23:26:17 10° N 23:27:53 16° NE 23:30:10 10° E
NOSS 3-4 (A) 3.9 23:23:52 16° WSW 23:28:37 58° NW 23:34:55 10° NNE
NOSS 3-4 (C) 3.9 23:24:01 17° WSW 23:28:43 59° NW 23:35:03 10° NNE
RESURS DK-1 2.4 23:29:48 65° E 23:29:48 65° E 23:33:46 10° NNE
STARLINK-1271 4.2 23:26:03 10° NW 23:30:08 55° NNE 23:31:49 32° E
Cosmos 2084 3.5 23:33:36 64° ESE 23:33:36 64° ESE 23:38:00 10° NE
Cosmos 2315 Rocket 3.9 23:28:42 10° N 23:34:56 83° W 23:36:59 45° S
BREEZE-M R/B 3.8 23:31:45 31° SSW 23:34:57 56° SSE 23:39:05 10° ENE
STARLINK-1154 4.1 23:31:02 10° NW 23:35:08 59° NNE 23:36:36 36° E
Cosmos 1626 3.1 23:36:00 36° ENE 23:36:00 36° ENE 23:39:07 10° NNE
Cosmos 2369 Rocket 4.2 23:32:51 10° WSW 23:37:22 24° NW 23:41:54 10° N
ATLAS CENTAUR R/B 2.4 23:35:43 29° WSW 23:37:27 44° NW 23:41:25 10° NNE
Cosmos 1340 Rocket 3.7 23:34:15 10° NNW 23:38:00 37° W 23:38:06 37° W
Okean 1-7 Rocket 4.0 23:37:39 48° ESE 23:38:03 50° E 23:42:26 10° NNE
Cosmos 2227 Rocket 3.7 23:34:11 10° N 23:39:12 31° NE 23:43:29 13° ESE
STARLINK-1197 4.0 23:35:58 10° NW 23:40:06 63° NNE 23:41:20 41° E
Nadezhda 2 Rocket 4.4 23:39:44 45° SSE 23:41:37 72° E 23:47:45 10° NNE
Cosmos 1908 3.4 23:38:53 10° NNW 23:42:29 63° WNW 23:42:29 63° WNW
STARLINK-1198 3.9 23:40:57 10° NW 23:45:05 67° NNE 23:46:08 46° E
Aureole 3 4.4 23:42:27 10° NNW 23:44:31 28° WNW 23:44:31 28° WNW
Cosmos 1953 3.9 23:42:58 10° NW 23:46:13 24° W 23:46:22 24° W
STARLINK-1199 3.7 23:45:56 10° NW 23:50:06 72° NNE 23:50:56 53° E
Landsat 4 3.7 23:47:29 10° NNE 23:51:00 76° NE 23:51:00 76° NE
KORONAS-FOTON 4.3 23:52:25 49° W 23:52:29 49° WNW 23:56:14 10° N
STARLINK-1210 3.6 23:50:54 10° NW 23:55:04 77° NNE 23:55:41 61° E
